Mobile, AL

5:48 PM CST on November 21, 2017 (GMT -0600)
Mobile Regional

Weather History for KMOB - April, 2014

Change the Weather History Date:

Wednesday, April 2, 2014

  Actual Average Record
Temperature  
Mean Temperature 69 °F 63 °F  
Max Temperature 80 °F 75 °F 86 °F (1927)
Min Temperature 58 °F 52 °F 32 °F (1881)
Degree Days  
Heating Degree Days 0 4  
Month to date heating degree days 2 8  
Since 1 July heating degree days 1981 1639  
Cooling Degree Days 4 2  
Month to date cooling degree days 4 4  
Year to date cooling degree days 17 59  
Growing Degree Days 18 (Base 50)    
Moisture  
Dew Point 64 °F    
Average Humidity 77    
Maximum Humidity 100    
Minimum Humidity 54    
Precipitation  
Precipitation 0.00 in 0.17 in 2.54 in (1988)
Month to date precipitation 0.00 0.36  
Year to date precipitation 13.62 17.27  
Snow  
Snow 0.00 in 0.00 in - ()
Month to date snowfall 0.0 0.0  
Since 1 July snowfall 1.3 0.2  
Snow Depth 0.00 in    
Sea Level Pressure  
Sea Level Pressure 30.10 in    
Wind  
Wind Speed 11 mph (SSE)    
Max Wind Speed 18 mph    
Max Gust Speed 25 mph    
Visibility 8 miles    
Events      
T = Trace of Precipitation, MM = Missing Value Source: NWS Daily Summary

Daily Weather History Graph

Daily Weather History Graph

Search for Another Location

Airport or City:

Trip Planner

Search our weather history database for the weather conditions in past years. The results will help you decide how hot, cold, wet, or windy it might be!

Date:

Astronomy

Apr. 02, 2014 Rise Set
Actual Time 6:40 AM CDT 7:12 PM CDT
Civil Twilight 6:16 AM CDT 7:36 PM CDT
Nautical Twilight 5:48 AM CDT 8:05 PM CDT
Astronomical Twilight 5:19 AM CDT 8:34 PM CDT
Moon 8:36 AM CDT (4/2) 10:23 PM CDT (4/2)
Length of Visible Light 13h 20m
Length of Day
12h 31m
Waxing Crescent, 10% of the Moon is Illuminated
Apr 2
Waxing Crescent
Apr 7
First Quarter
Apr 15
Full
Apr 22
Last Quarter
Apr 29
New

Hourly Weather History & Observations

Time (CDT) Temp. Heat Index Dew Point Humidity Pressure Visibility Wind Dir Wind Speed Gust Speed Precip Events Conditions
12:56 AM 57.9 °F - 57.9 °F 100% 30.09 in 10.0 mi SE 5.8 mph - N/A   Clear
1:56 AM 57.9 °F - 57.9 °F 100% 30.08 in 8.0 mi SE 5.8 mph - N/A   Clear
2:21 AM 59.0 °F - 59.0 °F 100% 30.09 in 7.0 mi SE 4.6 mph - N/A   Scattered Clouds
2:29 AM 60.1 °F - 60.1 °F 100% 30.09 in 6.0 mi SE 4.6 mph - N/A   Mostly Cloudy
2:39 AM 61.0 °F - 61.0 °F 100% 30.09 in 7.0 mi SSE 5.8 mph - N/A   Overcast
2:56 AM 61.0 °F - 61.0 °F 100% 30.08 in 6.0 mi SE 8.1 mph - N/A   Overcast
3:56 AM 63.0 °F - 63.0 °F 100% 30.07 in 5.0 mi SSE 8.1 mph - N/A   Overcast
4:56 AM 64.0 °F - 64.0 °F 100% 30.06 in 6.0 mi SSE 10.4 mph - N/A   Overcast
5:56 AM 64.0 °F - 64.0 °F 100% 30.08 in 3.0 mi SE 8.1 mph - N/A   Overcast
7:46 AM 64.9 °F - 64.9 °F 100% 30.11 in 3.0 mi SE 8.1 mph - N/A   Overcast
7:56 AM 64.9 °F - 64.9 °F 100% 30.11 in 3.0 mi SE 9.2 mph - N/A   Overcast
8:17 AM 66.0 °F - 64.9 °F 96% 30.12 in 3.0 mi SE 8.1 mph - N/A   Overcast
8:56 AM 68.0 °F - 66.0 °F 93% 30.12 in 3.0 mi SSE 9.2 mph - N/A   Overcast
9:28 AM 71.1 °F - 66.0 °F 84% 30.13 in 5.0 mi South 11.5 mph - N/A   Haze
9:43 AM 72.0 °F - 66.0 °F 81% 30.13 in 7.0 mi SSE 13.8 mph - N/A   Mostly Cloudy
9:56 AM 73.0 °F - 66.0 °F 79% 30.13 in 10.0 mi SSE 10.4 mph - N/A   Mostly Cloudy
10:03 AM 73.0 °F - 66.0 °F 79% 30.13 in 7.0 mi South 13.8 mph - N/A   Mostly Cloudy
10:15 AM 75.0 °F - 64.9 °F 71% 30.14 in 7.0 mi SSE 16.1 mph - N/A   Mostly Cloudy
10:56 AM 75.9 °F - 64.9 °F 69% 30.14 in 7.0 mi SSE 15.0 mph - N/A   Mostly Cloudy
11:56 AM 78.1 °F - 64.0 °F 62% 30.09 in 7.0 mi South 11.5 mph - N/A   Mostly Cloudy
12:56 PM 77.0 °F - 63.0 °F 62% 30.12 in 10.0 mi SSE 10.4 mph - N/A   Mostly Cloudy
1:56 PM 80.1 °F 81.5 °F 63.0 °F 56% 30.10 in 10.0 mi SSW 12.7 mph 20.7 mph N/A   Partly Cloudy
2:56 PM 78.1 °F - 64.0 °F 62% 30.10 in 10.0 mi SSW 11.5 mph 20.7 mph N/A   Scattered Clouds
3:56 PM 75.9 °F - 63.0 °F 64% 30.08 in 10.0 mi SSW 16.1 mph - N/A   Mostly Cloudy
4:56 PM 73.9 °F - 64.0 °F 71% 30.09 in 10.0 mi SSE 10.4 mph - N/A   Mostly Cloudy
5:56 PM 72.0 °F - 64.9 °F 78% 30.09 in 10.0 mi SE 9.2 mph - N/A   Mostly Cloudy
6:56 PM 69.1 °F - 64.0 °F 84% 30.09 in 10.0 mi SSE 9.2 mph - N/A   Mostly Cloudy
7:56 PM 66.9 °F - 64.9 °F 93% 30.09 in 10.0 mi SE 10.4 mph - N/A   Mostly Cloudy
8:56 PM 66.0 °F - 64.0 °F 93% 30.10 in 10.0 mi SE 12.7 mph - N/A   Scattered Clouds
9:56 PM 66.0 °F - 64.9 °F 96% 30.09 in 10.0 mi SE 12.7 mph - N/A   Mostly Cloudy
10:13 PM 66.0 °F - 64.9 °F 96% 30.09 in 7.0 mi SE 11.5 mph - N/A   Overcast
10:56 PM 66.9 °F - 66.0 °F 97% 30.09 in 7.0 mi SSE 12.7 mph - N/A   Overcast
11:56 PM 66.9 °F - 66.0 °F 97% 30.07 in 10.0 mi SSE 13.8 mph - N/A   Overcast